Minneapolis Flying Cloud, MN

10:00 AM CST on December 16, 2017 (GMT -0600)
Flying Cloud

Weather History for KFCM - September, 2013

Change the Weather History Date:

Wednesday, September 4, 2013

  Actual Average Record
Temperature  
Mean Temperature 73 °F -  
Max Temperature 88 °F 78 °F 91 °F (2007)
Min Temperature 59 °F 56 °F 48 °F (2010)
Cooling Degree Days 8    
Growing Degree Days 23 (Base 50)    
Moisture  
Dew Point 60 °F    
Average Humidity 67    
Maximum Humidity 93    
Minimum Humidity 43    
Precipitation  
Precipitation 0.00 in - - ()
Sea Level Pressure  
Sea Level Pressure 30.07 in    
Wind  
Wind Speed 3 mph (NNW)    
Max Wind Speed 10 mph    
Max Gust Speed -    
Visibility 10 miles    
Events      
Averages and records for this station are not official NWS values.
T = Trace of Precipitation, MM = Missing Value Source: NWS Daily Summary

Daily Weather History Graph

Daily Weather History Graph

Search for Another Location

Airport or City:

Trip Planner

Search our weather history database for the weather conditions in past years. The results will help you decide how hot, cold, wet, or windy it might be!

Date:

Astronomy

Sep. 04, 2013 Rise Set
Actual Time 6:39 AM CDT 7:44 PM CDT
Civil Twilight 6:09 AM CDT 8:14 PM CDT
Nautical Twilight 5:33 AM CDT 8:50 PM CDT
Astronomical Twilight 4:56 AM CDT 9:28 PM CDT
Moon 5:52 AM CDT (9/4) 7:03 PM CDT (9/4)
Length of Visible Light 14h 04m
Length of Day
13h 04m
Waning Crescent, 1% of the Moon is Illuminated
Sep 4
Waning Crescent
Sep 5
New
Sep 12
First Quarter
Sep 19
Full
Sep 26
Last Quarter

Hourly Weather History & Observations

Time (CDT) Temp. Heat Index Dew Point Humidity Pressure Visibility Wind Dir Wind Speed Gust Speed Precip Events Conditions
12:53 AM 63.0 °F - 57.0 °F 81% 30.01 in 10.0 mi WSW 4.6 mph - N/A   Clear
1:53 AM 64.0 °F - 57.9 °F 80% 30.02 in 10.0 mi Calm Calm - N/A   Clear
2:53 AM 62.1 °F - 57.0 °F 84% 30.03 in 10.0 mi Calm Calm - N/A   Clear
3:53 AM 59.0 °F - 55.9 °F 90% 30.03 in 10.0 mi SSW 3.5 mph - N/A   Clear
4:53 AM 59.0 °F - 57.0 °F 93% 30.04 in 9.0 mi SW 3.5 mph - N/A   Clear
5:53 AM 59.0 °F - 55.9 °F 90% 30.05 in 10.0 mi SSW 3.5 mph - N/A   Clear
6:53 AM 59.0 °F - 55.9 °F 90% 30.06 in 10.0 mi WSW 3.5 mph - N/A   Clear
7:53 AM 63.0 °F - 60.1 °F 90% 30.09 in 10.0 mi Calm Calm - N/A   Clear
8:53 AM 66.9 °F - 61.0 °F 81% 30.08 in 10.0 mi SSW 3.5 mph - N/A   Clear
9:53 AM 72.0 °F - 63.0 °F 73% 30.09 in 10.0 mi Calm Calm - N/A   Clear
10:53 AM 78.1 °F - 64.9 °F 64% 30.09 in 10.0 mi Calm Calm - N/A   Clear
11:53 AM 81.0 °F 82.7 °F 64.9 °F 58% 30.09 in 9.0 mi Calm Calm - N/A   Clear
12:53 PM 84.0 °F 85.4 °F 64.0 °F 51% 30.08 in 8.0 mi Calm Calm - N/A   Clear
1:53 PM 87.1 °F 88.3 °F 64.0 °F 46% 30.09 in 10.0 mi North 5.8 mph - N/A   Clear
2:53 PM 87.1 °F 87.8 °F 63.0 °F 44% 30.07 in 10.0 mi North 4.6 mph - N/A   Clear
3:53 PM 87.1 °F 87.5 °F 62.1 °F 43% 30.07 in 10.0 mi Variable 5.8 mph - N/A   Clear
4:53 PM 86.0 °F 86.3 °F 62.1 °F 44% 30.06 in 10.0 mi NW 3.5 mph - N/A   Clear
5:53 PM 84.9 °F 85.9 °F 63.0 °F 48% 30.07 in 8.0 mi WNW 6.9 mph - N/A   Clear
6:53 PM 81.0 °F 82.5 °F 64.0 °F 56% 30.07 in 8.0 mi NNW 4.6 mph - N/A   Clear
7:53 PM 77.0 °F - 61.0 °F 58% 30.08 in 10.0 mi NNE 10.4 mph - N/A   Clear
8:53 PM 75.0 °F - 61.0 °F 62% 30.09 in 10.0 mi NE 5.8 mph - N/A   Clear
9:53 PM 73.0 °F - 59.0 °F 61% 30.11 in 10.0 mi ENE 5.8 mph - N/A   Clear
10:53 PM 71.1 °F - 57.9 °F 63% 30.12 in 10.0 mi NE 3.5 mph - N/A   Clear
11:53 PM 69.1 °F - 57.9 °F 68% 30.14 in 10.0 mi ENE 4.6 mph - N/A   Clear